AAL507 KCLT-TNCC

Flight info

Callsign AAL507
Flight time 3h 34m
Altitude 34000
Route LILLS3 LILLS DCT GARIC AR3 NUCAR/N0448F350 Y374 RUMFO DCT JOSES UA315 VESKA VESKA1B
Aircraft A321/M-SDE3FGHIRWY/LB1

Departure

Time 2026-04-21 23:16
Airport Charlotte Douglas International Airport (KCLT)

Arrival

Time 2026-04-22 02:51
Airport Hato International Airport (TNCC)
Time Latitude Longitude Altitude Speed Heading
2026-04-21 22:49 35.21831 -80.94592 733 ft 0 kts 112°
2026-04-21 23:05 35.21840 -80.94617 732 ft 4 kts 112°
2026-04-21 23:06 35.21850 -80.94647 732 ft 4 kts 112°
2026-04-21 23:06 35.21860 -80.94678 731 ft 4 kts 112°
2026-04-21 23:06 35.21870 -80.94708 732 ft 4 kts 112°
2026-04-21 23:06 35.21877 -80.94729 730 ft 0 kts 112°
2026-04-21 23:09 35.21868 -80.94721 731 ft 4 kts 152°
2026-04-21 23:09 35.21829 -80.94720 732 ft 7 kts 193°
2026-04-21 23:09 35.21822 -80.94753 732 ft 9 kts 316°
2026-04-21 23:09 35.21875 -80.94818 732 ft 10 kts 283°
2026-04-21 23:10 35.21873 -80.94904 733 ft 10 kts 264°
2026-04-21 23:10 35.21869 -80.94957 733 ft 0 kts 265°
2026-04-21 23:11 35.21869 -80.95000 733 ft 12 kts 281°
2026-04-21 23:11 35.21939 -80.95050 734 ft 13 kts 354°
2026-04-21 23:11 35.22030 -80.95058 734 ft 14 kts 356°
2026-04-21 23:11 35.22126 -80.95065 734 ft 14 kts 356°
2026-04-21 23:12 35.22228 -80.95073 734 ft 15 kts 356°
2026-04-21 23:12 35.22335 -80.95082 734 ft 16 kts 354°
2026-04-21 23:12 35.22448 -80.95094 733 ft 17 kts 355°
2026-04-21 23:12 35.22564 -80.95104 733 ft 16 kts 356°
2026-04-21 23:13 35.22657 -80.95112 733 ft 14 kts 356°
2026-04-21 23:13 35.22731 -80.95152 734 ft 11 kts 289°
2026-04-21 23:13 35.22732 -80.95176 734 ft 0 kts 268°
2026-04-21 23:14 35.22732 -80.95177 734 ft 0 kts 268°
2026-04-21 23:14 35.22732 -80.95183 735 ft 0 kts 268°
2026-04-21 23:14 35.22731 -80.95195 735 ft 4 kts 267°
2026-04-21 23:15 35.22723 -80.95274 738 ft 12 kts 250°
2026-04-21 23:15 35.22653 -80.95311 740 ft 12 kts 182°
2026-04-21 23:15 35.22543 -80.95302 741 ft 33 kts 176°
2026-04-21 23:15 35.22070 -80.95262 742 ft 101 kts 175°
2026-04-21 23:16 35.21167 -80.95184 738 ft 157 kts 175°
2026-04-21 23:16 35.20003 -80.95098 1200 ft 162 kts 178°
2026-04-21 23:16 35.18899 -80.95041 1960 ft 160 kts 177°
2026-04-21 23:16 35.17783 -80.94817 2524 ft 168 kts 162°
2026-04-21 23:17 35.16873 -80.93842 2766 ft 189 kts 113°
2026-04-21 23:17 35.16473 -80.92244 2976 ft 207 kts 105°
2026-04-21 23:17 35.16086 -80.90466 3122 ft 226 kts 104°
2026-04-21 23:17 35.15667 -80.88551 3302 ft 238 kts 105°
2026-04-21 23:18 35.15232 -80.86585 3662 ft 240 kts 104°
2026-04-21 23:18 35.14793 -80.84613 4072 ft 241 kts 104°
2026-04-21 23:18 35.14339 -80.82583 4236 ft 259 kts 104°
2026-04-21 23:18 35.13843 -80.80361 4553 ft 277 kts 104°
2026-04-21 23:19 35.13332 -80.78067 5237 ft 282 kts 104°
2026-04-21 23:19 35.12810 -80.75728 5791 ft 289 kts 104°
2026-04-21 23:19 35.12278 -80.73358 5938 ft 290 kts 104°
2026-04-21 23:19 35.11744 -80.70987 5971 ft 289 kts 104°
2026-04-21 23:20 35.11209 -80.68617 5973 ft 289 kts 104°
2026-04-21 23:20 35.10677 -80.66262 5971 ft 288 kts 104°
2026-04-21 23:20 35.10144 -80.63904 5972 ft 288 kts 104°
2026-04-21 23:20 35.09610 -80.61546 6006 ft 289 kts 104°
2026-04-21 23:21 35.09081 -80.59211 6002 ft 289 kts 104°
2026-04-21 23:21 35.08549 -80.56846 6003 ft 289 kts 104°
2026-04-21 23:21 35.08015 -80.54480 6003 ft 289 kts 104°
2026-04-21 23:21 35.07478 -80.52115 6006 ft 289 kts 104°
2026-04-21 23:22 35.06941 -80.49747 5997 ft 289 kts 104°
2026-04-21 23:22 35.06404 -80.47378 5998 ft 290 kts 104°
2026-04-21 23:22 35.05863 -80.45008 5993 ft 290 kts 104°
2026-04-21 23:22 35.05321 -80.42623 6176 ft 294 kts 104°
2026-04-21 23:23 35.04777 -80.40225 6959 ft 294 kts 104°
2026-04-21 23:23 35.04228 -80.37806 7658 ft 297 kts 104°
2026-04-21 23:23 35.03671 -80.35367 8342 ft 300 kts 104°
2026-04-21 23:23 35.03108 -80.32900 9038 ft 303 kts 104°
2026-04-21 23:24 35.02540 -80.30405 9722 ft 307 kts 104°
2026-04-21 23:24 35.01963 -80.27871 10239 ft 318 kts 104°
2026-04-21 23:24 35.01352 -80.25177 10375 ft 341 kts 104°
2026-04-21 23:24 35.00706 -80.22305 10591 ft 358 kts 103°
2026-04-21 23:25 35.00035 -80.19342 11106 ft 365 kts 104°
2026-04-21 23:25 34.99340 -80.16351 11648 ft 370 kts 104°
2026-04-21 23:25 34.98610 -80.13317 12223 ft 375 kts 104°
2026-04-21 23:25 34.97854 -80.10254 12803 ft 379 kts 104°
2026-04-21 23:26 34.97079 -80.07166 13396 ft 383 kts 105°
2026-04-21 23:26 34.96290 -80.04045 13989 ft 387 kts 104°
2026-04-21 23:26 34.95493 -80.00885 14506 ft 391 kts 104°
2026-04-21 23:26 34.94694 -79.97700 15027 ft 395 kts 104°
2026-04-21 23:27 34.93771 -79.94525 15532 ft 401 kts 112°
2026-04-21 23:27 34.92403 -79.91540 16046 ft 407 kts 124°
2026-04-21 23:27 34.90643 -79.88865 16558 ft 412 kts 130°
2026-04-21 23:27 34.88748 -79.86173 17084 ft 416 kts 130°
2026-04-21 23:28 34.86883 -79.83517 17592 ft 420 kts 130°
2026-04-21 23:28 34.84958 -79.80767 18099 ft 424 kts 130°
2026-04-21 23:28 34.83068 -79.78058 18606 ft 427 kts 130°
2026-04-21 23:28 34.81138 -79.75291 19051 ft 430 kts 130°
2026-04-21 23:29 34.79189 -79.72501 19497 ft 434 kts 130°
2026-04-21 23:29 34.77224 -79.69697 19951 ft 437 kts 130°
2026-04-21 23:29 34.75242 -79.66873 20405 ft 441 kts 130°
2026-04-21 23:29 34.73240 -79.64023 20852 ft 445 kts 130°
2026-04-21 23:30 34.71227 -79.61157 21304 ft 448 kts 130°
2026-04-21 23:30 34.69190 -79.58262 21763 ft 452 kts 130°
2026-04-21 23:30 34.67141 -79.55355 22195 ft 455 kts 130°
2026-04-21 23:30 34.65073 -79.52425 22616 ft 458 kts 130°
2026-04-21 23:31 34.62991 -79.49475 23049 ft 461 kts 130°
2026-04-21 23:31 34.60897 -79.46508 23447 ft 465 kts 130°
2026-04-21 23:31 34.58786 -79.43518 23843 ft 468 kts 130°
2026-04-21 23:31 34.56660 -79.40507 24183 ft 471 kts 130°
2026-04-21 23:32 34.55245 -79.38507 24398 ft 473 kts 130°
2026-04-21 23:32 34.53096 -79.35468 24735 ft 476 kts 130°
2026-04-21 23:32 34.50940 -79.32421 25076 ft 477 kts 130°
2026-04-21 23:32 34.48770 -79.29358 25424 ft 479 kts 130°
2026-04-21 23:33 34.46593 -79.26289 25768 ft 482 kts 131°
2026-04-21 23:33 34.44402 -79.23206 26095 ft 484 kts 131°
2026-04-21 23:33 34.42200 -79.20114 26417 ft 486 kts 131°
2026-04-21 23:33 34.39986 -79.17005 26739 ft 488 kts 131°
2026-04-21 23:34 34.37764 -79.13895 27068 ft 490 kts 131°
2026-04-21 23:34 34.35527 -79.10767 27381 ft 492 kts 131°
2026-04-21 23:34 34.33282 -79.07626 27701 ft 494 kts 131°
2026-04-21 23:34 34.31030 -79.04474 28019 ft 497 kts 131°
2026-04-21 23:35 34.28767 -79.01306 28302 ft 499 kts 131°
2026-04-21 23:35 34.26489 -78.98118 28599 ft 501 kts 131°
2026-04-21 23:35 34.24207 -78.94928 28907 ft 503 kts 131°
2026-04-21 23:35 34.21907 -78.91715 29151 ft 506 kts 131°
2026-04-21 23:36 34.19602 -78.88501 29417 ft 508 kts 131°
2026-04-21 23:36 34.17284 -78.85273 29697 ft 510 kts 131°
2026-04-21 23:36 34.14952 -78.82034 29991 ft 512 kts 131°
2026-04-21 23:36 34.12608 -78.78782 30253 ft 514 kts 131°
2026-04-21 23:37 34.10259 -78.75523 30507 ft 516 kts 132°
2026-04-21 23:37 34.07897 -78.72245 30744 ft 518 kts 132°
2026-04-21 23:37 34.05533 -78.68963 30880 ft 518 kts 132°
2026-04-21 23:37 34.03169 -78.65684 31213 ft 517 kts 131°
2026-04-21 23:38 34.00811 -78.62415 31529 ft 517 kts 131°
2026-04-21 23:38 33.98448 -78.59147 31858 ft 516 kts 131°
2026-04-21 23:38 33.96089 -78.55890 32170 ft 516 kts 131°
2026-04-21 23:38 33.93727 -78.52636 32469 ft 515 kts 131°
2026-04-21 23:39 33.91370 -78.49391 32814 ft 514 kts 132°
2026-04-21 23:39 33.89022 -78.46159 33158 ft 513 kts 132°
2026-04-21 23:39 33.86676 -78.42930 33480 ft 512 kts 132°
2026-04-21 23:39 33.84335 -78.39709 33793 ft 511 kts 132°
2026-04-21 23:40 33.81997 -78.36495 34096 ft 511 kts 132°
2026-04-21 23:40 33.79654 -78.33276 34294 ft 511 kts 132°
2026-04-21 23:40 33.75006 -78.26897 34325 ft 505 kts 132°
2026-04-21 23:41 33.70370 -78.20566 34323 ft 504 kts 132°
2026-04-21 23:41 33.65733 -78.14247 34323 ft 504 kts 132°
2026-04-21 23:42 33.61134 -78.07979 34329 ft 503 kts 132°
2026-04-21 23:42 33.56369 -78.01873 34321 ft 500 kts 142°
2026-04-21 23:43 33.50537 -77.97536 34322 ft 490 kts 162°
2026-04-21 23:43 33.44030 -77.95567 34323 ft 478 kts 181°
2026-04-21 23:44 33.37415 -77.95151 34311 ft 477 kts 183°
2026-04-21 23:44 33.30779 -77.94742 34302 ft 478 kts 183°
2026-04-21 23:45 33.20808 -77.94135 34314 ft 479 kts 183°
2026-04-21 23:46 33.14155 -77.93739 34321 ft 479 kts 183°
2026-04-21 23:46 33.07502 -77.93339 34620 ft 477 kts 189°
2026-04-21 23:46 33.04205 -77.93137 34435 ft 472 kts 189°
2026-04-21 23:47 33.00930 -77.92936 34318 ft 469 kts 189°
2026-04-21 23:47 32.94444 -77.92555 34308 ft 466 kts 190°
2026-04-21 23:48 32.87952 -77.92185 34304 ft 468 kts 189°
2026-04-21 23:48 32.81434 -77.91796 34311 ft 469 kts 189°
2026-04-21 23:49 32.74901 -77.91410 34317 ft 470 kts 189°
2026-04-21 23:49 32.68411 -77.91027 34324 ft 470 kts 189°
2026-04-21 23:50 32.61872 -77.90637 34331 ft 471 kts 189°
2026-04-21 23:50 32.55329 -77.90251 34294 ft 471 kts 190°
2026-04-21 23:51 32.48772 -77.89862 34314 ft 472 kts 190°
2026-04-21 23:51 32.42215 -77.89481 34325 ft 472 kts 190°
2026-04-21 23:52 32.35648 -77.89096 34335 ft 472 kts 190°
2026-04-21 23:52 32.29083 -77.88704 34289 ft 472 kts 191°
2026-04-21 23:53 32.22517 -77.88315 34321 ft 473 kts 191°
2026-04-21 23:53 32.15945 -77.87940 34337 ft 473 kts 191°
2026-04-21 23:54 32.09364 -77.87566 34340 ft 473 kts 191°
2026-04-21 23:54 32.02786 -77.87186 34258 ft 473 kts 191°
2026-04-21 23:55 31.96236 -77.86794 34330 ft 471 kts 191°
2026-04-21 23:55 31.89745 -77.86419 34338 ft 470 kts 191°
2026-04-21 23:56 31.83207 -77.85984 34343 ft 471 kts 190°
2026-04-21 23:56 31.76656 -77.85446 34339 ft 472 kts 189°
2026-04-21 23:57 31.70123 -77.84895 34331 ft 469 kts 190°
2026-04-21 23:57 31.63622 -77.84384 34346 ft 467 kts 190°
2026-04-21 23:58 31.57139 -77.83889 34346 ft 466 kts 191°
2026-04-21 23:58 31.50670 -77.83392 34344 ft 466 kts 191°
2026-04-21 23:59 31.44222 -77.82894 34323 ft 464 kts 190°
2026-04-21 23:59 31.37789 -77.82402 34334 ft 463 kts 190°
2026-04-22 00:00 31.31364 -77.81912 34338 ft 462 kts 190°
2026-04-22 00:00 31.24944 -77.81411 34339 ft 462 kts 190°
2026-04-22 00:01 31.18527 -77.80913 34314 ft 462 kts 189°
2026-04-22 00:01 31.12122 -77.80424 34332 ft 461 kts 189°
2026-04-22 00:02 31.05765 -77.79937 34337 ft 460 kts 189°
2026-04-22 00:02 30.99378 -77.79447 34338 ft 460 kts 189°
2026-04-22 00:03 30.92992 -77.78961 34268 ft 459 kts 191°
2026-04-22 00:03 30.86658 -77.78474 34316 ft 455 kts 191°
2026-04-22 00:04 30.80349 -77.78002 34327 ft 454 kts 191°
2026-04-22 00:04 30.74047 -77.77526 34328 ft 453 kts 191°
2026-04-22 00:05 30.67747 -77.77049 34328 ft 453 kts 191°
2026-04-22 00:05 30.61451 -77.76576 34282 ft 454 kts 191°
2026-04-22 00:06 30.55141 -77.76100 34297 ft 455 kts 191°
2026-04-22 00:06 30.48821 -77.75617 34307 ft 455 kts 191°
2026-04-22 00:07 30.42492 -77.75130 34313 ft 455 kts 191°
2026-04-22 00:07 30.36181 -77.74696 34279 ft 453 kts 192°
2026-04-22 00:08 30.29883 -77.74388 34284 ft 453 kts 192°
2026-04-22 00:08 30.23589 -77.74105 34291 ft 453 kts 192°
2026-04-22 00:09 30.17283 -77.73787 34300 ft 454 kts 192°
2026-04-22 00:09 30.10961 -77.73447 34299 ft 455 kts 192°
2026-04-22 00:10 30.04635 -77.73108 34313 ft 455 kts 192°
2026-04-22 00:10 29.98302 -77.72774 34321 ft 456 kts 192°
2026-04-22 00:11 29.92008 -77.72446 34325 ft 456 kts 192°
2026-04-22 00:11 29.85675 -77.72121 34324 ft 456 kts 192°
2026-04-22 00:12 29.79345 -77.71789 34283 ft 455 kts 191°
2026-04-22 00:12 29.73036 -77.71456 34316 ft 453 kts 191°
2026-04-22 00:13 29.66752 -77.71137 34318 ft 452 kts 191°
2026-04-22 00:13 29.60476 -77.70822 34320 ft 451 kts 191°
2026-04-22 00:14 29.54199 -77.70503 34321 ft 451 kts 191°
2026-04-22 00:14 29.47942 -77.70180 34305 ft 450 kts 190°
2026-04-22 00:15 29.41687 -77.69852 34313 ft 449 kts 190°
2026-04-22 00:15 29.35452 -77.69529 34312 ft 448 kts 190°
2026-04-22 00:16 29.29221 -77.69213 34315 ft 448 kts 190°
2026-04-22 00:16 29.22994 -77.68896 34271 ft 448 kts 189°
2026-04-22 00:17 29.16778 -77.68569 34288 ft 447 kts 189°
2026-04-22 00:17 29.10557 -77.68247 34304 ft 447 kts 189°
2026-04-22 00:18 29.04346 -77.67929 34305 ft 447 kts 189°
2026-04-22 00:18 28.98136 -77.67616 34301 ft 446 kts 189°
2026-04-22 00:19 28.91937 -77.67311 34257 ft 446 kts 188°
2026-04-22 00:19 28.85731 -77.67006 34259 ft 447 kts 188°
2026-04-22 00:20 28.80567 -77.66744 34264 ft 447 kts 188°
2026-04-22 00:20 28.73335 -77.66371 34274 ft 447 kts 188°
2026-04-22 00:21 28.67110 -77.66056 34253 ft 448 kts 187°
2026-04-22 00:21 28.61891 -77.65793 34250 ft 449 kts 187°
2026-04-22 00:22 28.55673 -77.65480 34250 ft 451 kts 187°
2026-04-22 00:22 28.49399 -77.65154 34259 ft 452 kts 187°
2026-04-22 00:23 28.43077 -77.64835 34265 ft 452 kts 187°
2026-04-22 00:23 28.36788 -77.64523 34230 ft 452 kts 187°
2026-04-22 00:24 28.30529 -77.64211 34230 ft 454 kts 187°
2026-04-22 00:24 28.24209 -77.63891 34238 ft 455 kts 187°
2026-04-22 00:25 28.17876 -77.63576 34243 ft 456 kts 187°
2026-04-22 00:25 28.11518 -77.62500 34247 ft 474 kts 171°
2026-04-22 00:26 28.05357 -77.59498 34215 ft 485 kts 163°
2026-04-22 00:26 27.99242 -77.56252 34238 ft 486 kts 163°
2026-04-22 00:27 27.93120 -77.53020 34247 ft 486 kts 163°
2026-04-22 00:27 27.86992 -77.49788 34248 ft 486 kts 163°
2026-04-22 00:28 27.80899 -77.46587 34248 ft 486 kts 163°
2026-04-22 00:28 27.74767 -77.43367 34233 ft 486 kts 163°
2026-04-22 00:29 27.68636 -77.40156 34242 ft 485 kts 163°
2026-04-22 00:29 27.62505 -77.36948 34247 ft 486 kts 163°
2026-04-22 00:30 27.56378 -77.33738 34247 ft 486 kts 163°
2026-04-22 00:30 27.50252 -77.30532 34250 ft 486 kts 163°
2026-04-22 00:31 27.44118 -77.27332 34161 ft 485 kts 163°
2026-04-22 00:31 27.37986 -77.24144 34174 ft 485 kts 163°
2026-04-22 00:32 27.31855 -77.20963 34171 ft 485 kts 163°
2026-04-22 00:32 27.25734 -77.17775 34178 ft 485 kts 163°
2026-04-22 00:33 27.19657 -77.14600 34178 ft 485 kts 163°
2026-04-22 00:33 27.13494 -77.11404 34180 ft 485 kts 163°
2026-04-22 00:34 27.07411 -77.08262 34175 ft 485 kts 163°
2026-04-22 00:34 27.01287 -77.05089 34175 ft 485 kts 163°
2026-04-22 00:35 26.95163 -77.01929 34175 ft 485 kts 163°
2026-04-22 00:35 26.89036 -76.98770 34176 ft 485 kts 163°
2026-04-22 00:36 26.82908 -76.95604 34146 ft 485 kts 163°
2026-04-22 00:36 26.76777 -76.92438 34155 ft 485 kts 163°
2026-04-22 00:37 26.70640 -76.89283 34157 ft 486 kts 163°
2026-04-22 00:37 26.64499 -76.86129 34154 ft 486 kts 163°
2026-04-22 00:38 26.58403 -76.82994 34161 ft 485 kts 163°
2026-04-22 00:38 26.52263 -76.79851 34130 ft 485 kts 163°
2026-04-22 00:39 26.46119 -76.76715 34147 ft 486 kts 163°
2026-04-22 00:39 26.39969 -76.73569 34146 ft 486 kts 163°
2026-04-22 00:40 26.33820 -76.70424 34155 ft 487 kts 163°
2026-04-22 00:40 26.27658 -76.67287 34153 ft 487 kts 163°
2026-04-22 00:41 26.21495 -76.64148 34113 ft 487 kts 163°
2026-04-22 00:41 26.15336 -76.61002 34119 ft 488 kts 163°
2026-04-22 00:42 26.09164 -76.57860 34128 ft 488 kts 163°
2026-04-22 00:42 26.02984 -76.54736 34137 ft 488 kts 163°
2026-04-22 00:43 25.96849 -76.51630 34139 ft 488 kts 163°
2026-04-22 00:43 25.90671 -76.48504 34112 ft 488 kts 163°
2026-04-22 00:44 25.84495 -76.45375 34117 ft 488 kts 163°
2026-04-22 00:44 25.78304 -76.42241 34125 ft 489 kts 163°
2026-04-22 00:45 25.72115 -76.39113 34131 ft 489 kts 163°
2026-04-22 00:45 25.65925 -76.35995 34140 ft 489 kts 163°
2026-04-22 00:46 25.59737 -76.32882 34106 ft 489 kts 163°
2026-04-22 00:46 25.53542 -76.29762 34113 ft 489 kts 163°
2026-04-22 00:47 25.47343 -76.26649 34111 ft 490 kts 163°
2026-04-22 00:47 25.41133 -76.23536 34128 ft 490 kts 163°
2026-04-22 00:48 25.34921 -76.20424 34128 ft 490 kts 163°
2026-04-22 00:48 25.28707 -76.17311 34099 ft 490 kts 162°
2026-04-22 00:49 25.22509 -76.14204 34133 ft 489 kts 162°
2026-04-22 00:49 25.16364 -76.11134 34138 ft 487 kts 162°
2026-04-22 00:50 25.10196 -76.08060 34137 ft 486 kts 162°
2026-04-22 00:50 25.04035 -76.04989 34130 ft 485 kts 162°
2026-04-22 00:51 24.97878 -76.01924 34129 ft 485 kts 162°
2026-04-22 00:51 24.91734 -75.98857 34119 ft 485 kts 161°
2026-04-22 00:52 24.85585 -75.95789 34122 ft 485 kts 161°
2026-04-22 00:52 24.79435 -75.92734 34121 ft 485 kts 161°
2026-04-22 00:53 24.73278 -75.89680 34124 ft 485 kts 161°
2026-04-22 00:53 24.67121 -75.86633 34126 ft 485 kts 161°
2026-04-22 00:54 24.60960 -75.83593 34098 ft 486 kts 162°
2026-04-22 00:54 24.54792 -75.80545 34102 ft 486 kts 162°
2026-04-22 00:55 24.48621 -75.77496 34097 ft 486 kts 162°
2026-04-22 00:55 24.39356 -75.72924 34108 ft 487 kts 162°
2026-04-22 00:56 24.33170 -75.69883 34294 ft 487 kts 162°
2026-04-22 00:56 24.30073 -75.68361 34112 ft 489 kts 164°
2026-04-22 00:56 24.26979 -75.66840 34085 ft 487 kts 164°
2026-04-22 00:57 24.20793 -75.63801 34078 ft 488 kts 164°
2026-04-22 00:57 24.14589 -75.60749 34087 ft 490 kts 164°
2026-04-22 00:58 24.08408 -75.57712 34093 ft 491 kts 164°
2026-04-22 00:58 24.02169 -75.54665 34099 ft 491 kts 164°
2026-04-22 00:59 23.95927 -75.51620 34103 ft 492 kts 164°
2026-04-22 00:59 23.89681 -75.48557 34108 ft 492 kts 164°
2026-04-22 01:00 23.83440 -75.45505 34110 ft 492 kts 164°
2026-04-22 01:00 23.77187 -75.42466 34110 ft 492 kts 165°
2026-04-22 01:01 23.70943 -75.39421 34113 ft 491 kts 164°
2026-04-22 01:01 23.64702 -75.36375 34089 ft 491 kts 165°
2026-04-22 01:02 23.58464 -75.33345 34105 ft 491 kts 165°
2026-04-22 01:02 23.52228 -75.30313 34107 ft 491 kts 165°
2026-04-22 01:03 23.45994 -75.27286 34105 ft 490 kts 165°
2026-04-22 01:03 23.39759 -75.24275 34104 ft 490 kts 165°
2026-04-22 01:04 23.33524 -75.21258 34082 ft 490 kts 165°
2026-04-22 01:04 23.27289 -75.18245 34091 ft 490 kts 165°
2026-04-22 01:05 23.21100 -75.15253 34102 ft 490 kts 165°
2026-04-22 01:05 23.14861 -75.12243 34106 ft 490 kts 165°
2026-04-22 01:06 23.08648 -75.09169 34096 ft 495 kts 160°
2026-04-22 01:06 23.02688 -75.05308 34053 ft 499 kts 158°
2026-04-22 01:07 22.96744 -75.01425 34066 ft 499 kts 158°
2026-04-22 01:07 22.90789 -74.97557 34076 ft 499 kts 158°
2026-04-22 01:08 22.84829 -74.93689 34088 ft 499 kts 158°
2026-04-22 01:08 22.78868 -74.89823 34095 ft 499 kts 158°
2026-04-22 01:09 22.72908 -74.85956 34097 ft 499 kts 158°
2026-04-22 01:09 22.66948 -74.82088 34078 ft 499 kts 158°
2026-04-22 01:10 22.60985 -74.78221 34085 ft 500 kts 158°
2026-04-22 01:10 22.55015 -74.74362 34093 ft 500 kts 158°
2026-04-22 01:11 22.49039 -74.70509 34098 ft 500 kts 158°
2026-04-22 01:11 22.43069 -74.66663 34103 ft 500 kts 158°
2026-04-22 01:12 22.38105 -74.63457 34106 ft 500 kts 158°
2026-04-22 01:12 22.32138 -74.59604 34096 ft 499 kts 157°
2026-04-22 01:13 22.26177 -74.55758 34107 ft 498 kts 158°
2026-04-22 01:13 22.19256 -74.51310 34104 ft 498 kts 158°
2026-04-22 01:14 22.14274 -74.48113 34105 ft 497 kts 158°
2026-04-22 01:14 22.08327 -74.44299 34109 ft 497 kts 158°
2026-04-22 01:15 22.02383 -74.40489 34072 ft 497 kts 158°
2026-04-22 01:15 21.96448 -74.36687 34109 ft 496 kts 157°
2026-04-22 01:16 21.90524 -74.32899 34114 ft 495 kts 157°
2026-04-22 01:16 21.84617 -74.29115 34114 ft 494 kts 157°
2026-04-22 01:17 21.78715 -74.25339 34106 ft 493 kts 157°
2026-04-22 01:17 21.72814 -74.21580 34112 ft 492 kts 157°
2026-04-22 01:18 21.66960 -74.17854 34086 ft 492 kts 157°
2026-04-22 01:18 21.61085 -74.14104 34097 ft 491 kts 157°
2026-04-22 01:19 21.55218 -74.10366 34106 ft 490 kts 157°
2026-04-22 01:19 21.49348 -74.06641 34098 ft 489 kts 157°
2026-04-22 01:20 21.43487 -74.02928 34100 ft 489 kts 157°
2026-04-22 01:20 21.37635 -73.99211 34097 ft 489 kts 157°
2026-04-22 01:21 21.31782 -73.95495 34079 ft 489 kts 157°
2026-04-22 01:21 21.25925 -73.91789 34089 ft 489 kts 157°
2026-04-22 01:22 21.20066 -73.88087 34096 ft 489 kts 157°
2026-04-22 01:22 21.14213 -73.84387 34097 ft 489 kts 157°
2026-04-22 01:23 21.08356 -73.80679 34097 ft 489 kts 157°
2026-04-22 01:23 21.02500 -73.76987 34096 ft 488 kts 157°
2026-04-22 01:24 20.96681 -73.73324 34083 ft 488 kts 156°
2026-04-22 01:24 20.90828 -73.69636 34094 ft 488 kts 156°
2026-04-22 01:25 20.84978 -73.65951 34098 ft 488 kts 156°
2026-04-22 01:25 20.79127 -73.62272 34108 ft 488 kts 156°
2026-04-22 01:26 20.73274 -73.58600 34111 ft 488 kts 156°
2026-04-22 01:26 20.67420 -73.54931 34111 ft 488 kts 156°
2026-04-22 01:27 20.61563 -73.51263 34105 ft 488 kts 156°
2026-04-22 01:27 20.55712 -73.47601 34106 ft 488 kts 156°
2026-04-22 01:28 20.49859 -73.43935 34108 ft 488 kts 156°
2026-04-22 01:28 20.44000 -73.40271 34108 ft 488 kts 156°
2026-04-22 01:29 20.38144 -73.36620 34103 ft 488 kts 157°
2026-04-22 01:29 20.32290 -73.32974 34085 ft 488 kts 156°
2026-04-22 01:30 20.26440 -73.29322 34108 ft 487 kts 156°
2026-04-22 01:30 20.20592 -73.25678 34113 ft 487 kts 156°
2026-04-22 01:31 20.14746 -73.22040 34114 ft 486 kts 156°
2026-04-22 01:31 20.08833 -73.18580 34109 ft 483 kts 159°
2026-04-22 01:32 20.02856 -73.15326 34108 ft 482 kts 160°
2026-04-22 01:32 19.96915 -73.12099 34093 ft 483 kts 159°
2026-04-22 01:33 19.90925 -73.08775 34104 ft 483 kts 159°
2026-04-22 01:33 19.85025 -73.05458 34105 ft 483 kts 159°
2026-04-22 01:34 19.79095 -73.02103 34104 ft 483 kts 159°
2026-04-22 01:34 19.73180 -72.98711 34101 ft 484 kts 157°
2026-04-22 01:35 19.67331 -72.95174 34100 ft 484 kts 156°
2026-04-22 01:35 19.61503 -72.91611 34071 ft 483 kts 156°
2026-04-22 01:36 19.55669 -72.88087 34082 ft 482 kts 156°
2026-04-22 01:36 19.49828 -72.84589 34081 ft 482 kts 156°
2026-04-22 01:37 19.43991 -72.81100 34088 ft 481 kts 156°
2026-04-22 01:37 19.38161 -72.77612 34085 ft 481 kts 156°
2026-04-22 01:38 19.32335 -72.74124 34078 ft 481 kts 156°
2026-04-22 01:38 19.26510 -72.70639 34062 ft 481 kts 156°
2026-04-22 01:39 19.20692 -72.67169 34061 ft 480 kts 156°
2026-04-22 01:39 19.14874 -72.63700 34064 ft 480 kts 156°
2026-04-22 01:40 19.09100 -72.60255 34064 ft 479 kts 156°
2026-04-22 01:40 19.03278 -72.56830 34054 ft 479 kts 157°
2026-04-22 01:41 18.97436 -72.53451 34055 ft 479 kts 157°
2026-04-22 01:41 18.91588 -72.50085 34032 ft 478 kts 156°
2026-04-22 01:42 18.85758 -72.46709 34040 ft 478 kts 156°
2026-04-22 01:42 18.79928 -72.43327 34028 ft 478 kts 156°
2026-04-22 01:43 18.74099 -72.39956 34032 ft 478 kts 156°
2026-04-22 01:43 18.68263 -72.36584 34029 ft 478 kts 156°
2026-04-22 01:44 18.62430 -72.33210 34033 ft 478 kts 156°
2026-04-22 01:44 18.56595 -72.29848 34038 ft 477 kts 157°
2026-04-22 01:45 18.50665 -72.26743 34050 ft 474 kts 160°
2026-04-22 01:45 18.44691 -72.23837 34049 ft 473 kts 160°
2026-04-22 01:46 18.38730 -72.20904 34068 ft 473 kts 160°
2026-04-22 01:46 18.32801 -72.17909 34067 ft 472 kts 159°
2026-04-22 01:47 18.26886 -72.14901 34065 ft 472 kts 159°
2026-04-22 01:47 18.21054 -72.11707 34067 ft 473 kts 155°
2026-04-22 01:48 18.15328 -72.08279 34072 ft 474 kts 154°
2026-04-22 01:48 18.09644 -72.04866 34085 ft 473 kts 155°
2026-04-22 01:49 18.03898 -72.01514 34084 ft 472 kts 155°
2026-04-22 01:49 17.98144 -71.98195 34068 ft 472 kts 155°
2026-04-22 01:50 17.92356 -71.94849 34070 ft 472 kts 155°
2026-04-22 01:50 17.86676 -71.91382 34065 ft 473 kts 153°
2026-04-22 01:51 17.81108 -71.87801 34068 ft 472 kts 152°
2026-04-22 01:51 17.75501 -71.84214 34070 ft 472 kts 153°
2026-04-22 01:52 17.69875 -71.80673 34068 ft 471 kts 153°
2026-04-22 01:52 17.64248 -71.77150 34068 ft 471 kts 153°
2026-04-22 01:53 17.58621 -71.73638 34066 ft 471 kts 153°
2026-04-22 01:53 17.53002 -71.70122 34055 ft 470 kts 153°
2026-04-22 01:54 17.47384 -71.66602 34051 ft 470 kts 153°
2026-04-22 01:54 17.41779 -71.63085 34061 ft 470 kts 153°
2026-04-22 01:55 17.36174 -71.59567 34064 ft 469 kts 153°
2026-04-22 01:55 17.30572 -71.56061 34066 ft 469 kts 153°
2026-04-22 01:56 17.24962 -71.52556 34057 ft 469 kts 153°
2026-04-22 01:56 17.19351 -71.49059 34051 ft 470 kts 153°
2026-04-22 01:57 17.13779 -71.45579 34061 ft 470 kts 153°
2026-04-22 01:57 17.08167 -71.42070 34049 ft 470 kts 153°
2026-04-22 01:58 17.02555 -71.38564 34050 ft 470 kts 153°
2026-04-22 01:58 16.96941 -71.35062 34059 ft 470 kts 153°
2026-04-22 01:59 16.91328 -71.31565 34054 ft 470 kts 153°
2026-04-22 01:59 16.85712 -71.28070 34054 ft 470 kts 153°
2026-04-22 02:00 16.80104 -71.24574 34057 ft 469 kts 153°
2026-04-22 02:00 16.74502 -71.21089 34063 ft 469 kts 153°
2026-04-22 02:01 16.68898 -71.17614 34065 ft 468 kts 153°
2026-04-22 02:01 16.64249 -71.14729 34062 ft 468 kts 153°
2026-04-22 02:02 16.58662 -71.11246 34060 ft 468 kts 153°
2026-04-22 02:02 16.53070 -71.07780 34061 ft 467 kts 153°
2026-04-22 02:03 16.47478 -71.04326 34057 ft 467 kts 152°
2026-04-22 02:03 16.41900 -71.00867 34062 ft 466 kts 152°
2026-04-22 02:04 16.33545 -70.95696 34062 ft 465 kts 152°
2026-04-22 02:05 16.27983 -70.92259 34063 ft 465 kts 152°
2026-04-22 02:05 16.22418 -70.88824 34058 ft 464 kts 153°
2026-04-22 02:06 16.16858 -70.85401 34052 ft 465 kts 153°
2026-04-22 02:06 16.11300 -70.81966 34053 ft 464 kts 152°
2026-04-22 02:07 16.05741 -70.78547 34052 ft 464 kts 152°
2026-04-22 02:07 16.00169 -70.75162 34048 ft 463 kts 156°
2026-04-22 02:08 15.94294 -70.72489 34050 ft 461 kts 160°
2026-04-22 02:08 15.88393 -70.69890 34052 ft 461 kts 160°
2026-04-22 02:09 15.82534 -70.67297 34053 ft 461 kts 160°
2026-04-22 02:09 15.76638 -70.64687 34052 ft 460 kts 160°
2026-04-22 02:10 15.70740 -70.62094 34056 ft 460 kts 160°
2026-04-22 02:10 15.64843 -70.59501 34057 ft 460 kts 160°
2026-04-22 02:11 15.58955 -70.56910 34053 ft 460 kts 160°
2026-04-22 02:11 15.53063 -70.54321 34054 ft 460 kts 160°
2026-04-22 02:12 15.47178 -70.51721 34054 ft 460 kts 160°
2026-04-22 02:12 15.41287 -70.49131 34048 ft 460 kts 160°
2026-04-22 02:13 15.35403 -70.46545 34047 ft 459 kts 160°
2026-04-22 02:13 15.29519 -70.43960 34049 ft 459 kts 160°
2026-04-22 02:14 15.23640 -70.41377 34047 ft 459 kts 160°
2026-04-22 02:14 15.17765 -70.38798 34045 ft 459 kts 160°
2026-04-22 02:15 15.11880 -70.36226 34045 ft 459 kts 160°
2026-04-22 02:15 15.05999 -70.33650 34046 ft 459 kts 159°
2026-04-22 02:16 15.00114 -70.31080 34049 ft 459 kts 159°
2026-04-22 02:16 14.94236 -70.28507 34050 ft 458 kts 159°
2026-04-22 02:17 14.88363 -70.25938 34048 ft 458 kts 159°
2026-04-22 02:17 14.82536 -70.23390 34049 ft 458 kts 159°
2026-04-22 02:18 14.76671 -70.20830 34047 ft 458 kts 159°
2026-04-22 02:18 14.70807 -70.18278 34049 ft 457 kts 159°
2026-04-22 02:19 14.64952 -70.15724 34048 ft 457 kts 159°
2026-04-22 02:19 14.59100 -70.13169 34049 ft 456 kts 159°
2026-04-22 02:20 14.53292 -70.10635 33687 ft 448 kts 159°
2026-04-22 02:20 14.50432 -70.09389 33430 ft 445 kts 159°
2026-04-22 02:20 14.47588 -70.08155 33171 ft 443 kts 159°
2026-04-22 02:20 14.44750 -70.06923 32921 ft 442 kts 159°
2026-04-22 02:21 14.41923 -70.05694 32670 ft 441 kts 159°
2026-04-22 02:21 14.39102 -70.04463 32417 ft 438 kts 159°
2026-04-22 02:21 14.36302 -70.03241 32172 ft 437 kts 159°
2026-04-22 02:21 14.33507 -70.02024 31930 ft 436 kts 159°
2026-04-22 02:22 14.30715 -70.00814 31682 ft 434 kts 159°
2026-04-22 02:22 14.27934 -69.99612 31453 ft 433 kts 159°
2026-04-22 02:22 14.25154 -69.98409 31217 ft 433 kts 159°
2026-04-22 02:22 14.22384 -69.97206 30985 ft 432 kts 159°
2026-04-22 02:23 14.19618 -69.96002 30748 ft 431 kts 159°
2026-04-22 02:23 14.16856 -69.94803 30520 ft 430 kts 159°
2026-04-22 02:23 14.14102 -69.93609 30291 ft 430 kts 159°
2026-04-22 02:23 14.11344 -69.92416 30059 ft 429 kts 159°
2026-04-22 02:24 14.08597 -69.91226 29791 ft 428 kts 159°
2026-04-22 02:24 14.05858 -69.90038 29526 ft 426 kts 158°
2026-04-22 02:24 14.03133 -69.88853 29252 ft 425 kts 158°
2026-04-22 02:24 14.00414 -69.87671 28990 ft 423 kts 158°
2026-04-22 02:25 13.97739 -69.86511 28741 ft 422 kts 158°
2026-04-22 02:25 13.95038 -69.85342 28484 ft 420 kts 158°
2026-04-22 02:25 13.92346 -69.84175 28231 ft 419 kts 158°
2026-04-22 02:25 13.89665 -69.83009 27979 ft 417 kts 158°
2026-04-22 02:26 13.86995 -69.81851 27730 ft 416 kts 158°
2026-04-22 02:26 13.84330 -69.80699 27482 ft 415 kts 158°
2026-04-22 02:26 13.81671 -69.79554 27239 ft 414 kts 158°
2026-04-22 02:26 13.79024 -69.78418 26998 ft 411 kts 158°
2026-04-22 02:27 13.76385 -69.77285 26751 ft 410 kts 158°
2026-04-22 02:27 13.73762 -69.76152 26508 ft 408 kts 158°
2026-04-22 02:27 13.71147 -69.75019 26273 ft 407 kts 158°
2026-04-22 02:27 13.68542 -69.73891 26053 ft 405 kts 157°
2026-04-22 02:28 13.65946 -69.72768 25812 ft 405 kts 157°
2026-04-22 02:28 13.63350 -69.71646 25576 ft 404 kts 157°
2026-04-22 02:28 13.60769 -69.70532 25349 ft 400 kts 157°
2026-04-22 02:28 13.58217 -69.69431 24964 ft 397 kts 157°
2026-04-22 02:29 13.55671 -69.68332 24531 ft 397 kts 157°
2026-04-22 02:29 13.53127 -69.67236 24086 ft 396 kts 156°
2026-04-22 02:29 13.50590 -69.66146 23641 ft 396 kts 156°
2026-04-22 02:29 13.48048 -69.65053 23131 ft 395 kts 156°
2026-04-22 02:30 13.45522 -69.63965 22670 ft 393 kts 156°
2026-04-22 02:30 13.43009 -69.62882 22220 ft 390 kts 156°
2026-04-22 02:30 13.40517 -69.61806 21776 ft 388 kts 156°
2026-04-22 02:30 13.38037 -69.60739 21315 ft 385 kts 156°
2026-04-22 02:31 13.35567 -69.59675 20855 ft 383 kts 155°
2026-04-22 02:31 13.33115 -69.58620 20406 ft 381 kts 156°
2026-04-22 02:31 13.30682 -69.57572 19956 ft 379 kts 154°
2026-04-22 02:31 13.28258 -69.56528 19518 ft 377 kts 154°
2026-04-22 02:32 13.25844 -69.55487 19065 ft 375 kts 154°
2026-04-22 02:32 13.23446 -69.54455 18620 ft 373 kts 155°
2026-04-22 02:32 13.21096 -69.53444 18167 ft 370 kts 155°
2026-04-22 02:32 13.18732 -69.52426 17696 ft 367 kts 155°
2026-04-22 02:33 13.16385 -69.51418 17260 ft 363 kts 155°
2026-04-22 02:33 13.14065 -69.50422 16831 ft 360 kts 155°
2026-04-22 02:33 13.11738 -69.49425 16402 ft 356 kts 155°
2026-04-22 02:33 13.09495 -69.48462 15984 ft 353 kts 155°
2026-04-22 02:34 13.07237 -69.47491 15561 ft 350 kts 155°
2026-04-22 02:34 13.05002 -69.46528 15148 ft 348 kts 156°
2026-04-22 02:34 13.02777 -69.45572 14734 ft 346 kts 156°
2026-04-22 02:34 13.00563 -69.44623 14319 ft 344 kts 156°
2026-04-22 02:35 12.98363 -69.43679 13919 ft 342 kts 156°
2026-04-22 02:35 12.96172 -69.42737 13476 ft 340 kts 156°
2026-04-22 02:35 12.93997 -69.41802 13071 ft 338 kts 155°
2026-04-22 02:35 12.91840 -69.40874 12654 ft 335 kts 155°
2026-04-22 02:36 12.89701 -69.39957 12254 ft 332 kts 155°
2026-04-22 02:36 12.87577 -69.39048 11859 ft 330 kts 155°
2026-04-22 02:36 12.85466 -69.38144 11461 ft 327 kts 156°
2026-04-22 02:36 12.83372 -69.37247 11073 ft 325 kts 154°
2026-04-22 02:37 12.81295 -69.36355 10762 ft 320 kts 155°
2026-04-22 02:37 12.79278 -69.35493 10595 ft 310 kts 156°
2026-04-22 02:37 12.77204 -69.34939 10279 ft 308 kts 172°
2026-04-22 02:37 12.75063 -69.34902 9932 ft 308 kts 180°
2026-04-22 02:38 12.72931 -69.34986 9559 ft 306 kts 179°
2026-04-22 02:38 12.70814 -69.35074 9242 ft 302 kts 179°
2026-04-22 02:38 12.68761 -69.35159 9016 ft 298 kts 179°
2026-04-22 02:38 12.66674 -69.35242 8800 ft 295 kts 180°
2026-04-22 02:39 12.64654 -69.35318 8561 ft 294 kts 179°
2026-04-22 02:39 12.62616 -69.35393 8358 ft 292 kts 179°
2026-04-22 02:39 12.60590 -69.35468 8136 ft 291 kts 179°
2026-04-22 02:39 12.58573 -69.35545 7921 ft 289 kts 180°
2026-04-22 02:40 12.56566 -69.35622 7711 ft 288 kts 180°
2026-04-22 02:40 12.54568 -69.35700 7486 ft 286 kts 178°
2026-04-22 02:40 12.52580 -69.35777 7278 ft 286 kts 179°
2026-04-22 02:40 12.50593 -69.35851 7060 ft 285 kts 178°
2026-04-22 02:41 12.48619 -69.35925 6846 ft 284 kts 180°
2026-04-22 02:41 12.46651 -69.36001 6638 ft 283 kts 179°
2026-04-22 02:41 12.44687 -69.36076 6435 ft 281 kts 179°
2026-04-22 02:41 12.42735 -69.36150 6207 ft 281 kts 179°
2026-04-22 02:42 12.40787 -69.36221 5999 ft 280 kts 179°
2026-04-22 02:42 12.38849 -69.36293 5790 ft 278 kts 178°
2026-04-22 02:42 12.36917 -69.36364 5582 ft 277 kts 179°
2026-04-22 02:42 12.34996 -69.36430 5375 ft 276 kts 176°
2026-04-22 02:43 12.33147 -69.36079 5171 ft 268 kts 154°
2026-04-22 02:43 12.31598 -69.35081 4977 ft 261 kts 134°
2026-04-22 02:43 12.30524 -69.33609 4778 ft 259 kts 114°
2026-04-22 02:43 12.29905 -69.31890 4576 ft 257 kts 107°
2026-04-22 02:44 12.29332 -69.30160 4383 ft 256 kts 107°
2026-04-22 02:44 12.28764 -69.28451 4189 ft 253 kts 107°
2026-04-22 02:44 12.28197 -69.26750 4009 ft 252 kts 107°
2026-04-22 02:44 12.27632 -69.25053 3811 ft 253 kts 107°
2026-04-22 02:45 12.27067 -69.23353 3637 ft 250 kts 107°
2026-04-22 02:45 12.26519 -69.21708 3530 ft 239 kts 107°
2026-04-22 02:45 12.25997 -69.20142 3433 ft 227 kts 108°
2026-04-22 02:45 12.25498 -69.18652 3335 ft 217 kts 108°
2026-04-22 02:46 12.24820 -69.17312 3242 ft 216 kts 125°
2026-04-22 02:46 12.23834 -69.16165 3164 ft 209 kts 129°
2026-04-22 02:46 12.22996 -69.15015 3059 ft 198 kts 113°
2026-04-22 02:46 12.22611 -69.13678 2926 ft 196 kts 101°
2026-04-22 02:47 12.22330 -69.12324 2814 ft 193 kts 101°
2026-04-22 02:47 12.22048 -69.10972 2681 ft 194 kts 101°
2026-04-22 02:47 12.21767 -69.09632 2460 ft 192 kts 102°
2026-04-22 02:47 12.21487 -69.08299 2233 ft 191 kts 102°
2026-04-22 02:48 12.21209 -69.06976 1993 ft 188 kts 102°
2026-04-22 02:48 12.20944 -69.05722 1776 ft 170 kts 101°
2026-04-22 02:48 12.20714 -69.04627 1552 ft 148 kts 103°
2026-04-22 02:48 12.20504 -69.03628 1358 ft 141 kts 102°
2026-04-22 02:49 12.20310 -69.02661 1148 ft 137 kts 101°
2026-04-22 02:49 12.20131 -69.01711 985 ft 136 kts 101°
2026-04-22 02:49 12.19937 -69.00764 835 ft 136 kts 99°
2026-04-22 02:49 12.19754 -68.99820 717 ft 135 kts 101°
2026-04-22 02:50 12.19507 -68.98867 564 ft 140 kts 102°
2026-04-22 02:50 12.19286 -68.97898 284 ft 139 kts 99°
2026-04-22 02:50 12.19099 -68.96955 133 ft 135 kts 100°
2026-04-22 02:50 12.18907 -68.96040 35 ft 119 kts 99°
2026-04-22 02:51 12.18767 -68.95368 27 ft 72 kts 102°
2026-04-22 02:51 12.18694 -68.95035 28 ft 32 kts 102°
2026-04-22 02:51 12.18650 -68.94829 29 ft 28 kts 102°
2026-04-22 02:51 12.18606 -68.94638 32 ft 27 kts 106°
2026-04-22 02:52 12.18552 -68.94486 31 ft 15 kts 136°
2026-04-22 02:52 12.18486 -68.94472 30 ft 10 kts 190°
2026-04-22 02:52 12.18439 -68.94491 30 ft 12 kts 206°
2026-04-22 02:52 12.18420 -68.94593 30 ft 13 kts 282°
2026-04-22 02:53 12.18440 -68.94689 30 ft 15 kts 282°
2026-04-22 02:53 12.18454 -68.94760 30 ft 16 kts 282°
2026-04-22 02:53 12.18480 -68.94874 29 ft 16 kts 283°
2026-04-22 02:53 12.18491 -68.94925 29 ft 0 kts 283°
2026-04-22 02:54 12.18492 -68.94929 29 ft 2 kts 283°
2026-04-22 02:54 12.18497 -68.94950 29 ft 4 kts 283°
2026-04-22 02:54 12.18510 -68.95007 29 ft 13 kts 283°
2026-04-22 02:54 12.18531 -68.95101 29 ft 14 kts 282°
2026-04-22 02:55 12.18553 -68.95208 29 ft 16 kts 282°
2026-04-22 02:55 12.18579 -68.95328 28 ft 18 kts 282°
2026-04-22 02:55 12.18603 -68.95459 28 ft 19 kts 274°
2026-04-22 02:55 12.18623 -68.95598 28 ft 21 kts 279°
2026-04-22 02:56 12.18650 -68.95750 28 ft 22 kts 281°
2026-04-22 02:56 12.18682 -68.95906 28 ft 23 kts 282°
2026-04-22 02:56 12.18717 -68.96056 28 ft 16 kts 286°
2026-04-22 02:56 12.18687 -68.96102 28 ft 0 kts 182°
2026-04-22 02:57 12.18674 -68.96102 28 ft 4 kts 182°
2026-04-22 02:57 12.18672 -68.96102 28 ft 0 kts 183°